This demonstration page uses our WeatherBlox Daily Observations layout. Learn more.

Left ArrowRight Arrow

Hourly Observations for November 28, 2022

Temp ( °F °C ) Dew Point ( °F °C ) Humidity (%) Winds ( mph kmh ) Pressure ( in mb ) Visibility ( mi km ) Precip ( " mm )
12:53 am 00:53 Clear 43 6.1 40 4.4 89 89 Calm 29.99 1016 10 16 0.00 0.00
1:53 am 01:53 Clear 41 5 39 3.9 93 93 Calm 29.98 1015 10 16 0.00 0.00
2:53 am 02:53 Clear 41 5 39 3.9 93 93 SE 3 6 29.97 1015 10 16 0.00 0.00
3:53 am 03:53 Clear 40 4.4 38 3.3 93 93 Calm 29.96 1015 10 16 0.00 0.00
4:53 am 04:53 Clear 40 4.4 38 3.3 93 93 Calm 29.96 1015 10 16 0.00 0.00
5:53 am 05:53 Clear 40 4.4 38 3.3 93 93 Calm 29.97 1015 10 16 0.00 0.00
6:53 am 06:53 Clear 40 4.4 38 3.3 93 93 Calm 29.98 1015 10 16 0.00 0.00
7:53 am 07:53 Sunny 44 6.7 40 4.4 85 85 SE 5 7 29.98 1015 10 16 0.00 0.00
8:53 am 08:53 Sunny 50 10 41 5 71 71 SSE 5 7 29.99 1016 10 16 0.00 0.00
9:53 am 09:53 Sunny 53 11.7 42 5.6 66 66 SE 9 15 30.00 1016 10 16 0.00 0.00
10:53 am 10:53 Mostly Sunny 57 13.9 43 6.1 59 59 SSE 12 19 29.98 1015 10 16 0.00 0.00
11:53 am 11:53 Mostly Sunny 60 15.6 44 6.7 55 55 S 9 15 29.93 1014 10 16 0.00 0.00
12:53 pm 12:53 Partly Cloudy 63 17.2 45 7.2 52 52 S 9 15 29.89 1012 10 16 0.00 0.00
1:53 pm 13:53 Mostly Sunny 66 18.9 46 7.8 48 48 S 10 17 29.84 1011 10 16 0.00 0.00
2:53 pm 14:53 Mostly Sunny 67 19.4 47 8.3 49 49 S 14 22 29.81 1010 10 16 0.00 0.00
3:53 pm 15:53 Mostly Sunny 68 20 46 7.8 45 45 SSE 13 20 29.80 1009 10 16 0.00 0.00
4:53 pm 16:53 Mostly Sunny 66 18.9 47 8.3 50 50 SSE 12 19 29.79 1009 10 16 0.00 0.00
5:53 pm 17:53 Mostly Clear 64 17.8 48 8.9 56 56 SSE 10 17 29.79 1009 10 16 0.00 0.00
6:53 pm 18:53 Clear 63 17.2 48 8.9 58 58 S 12 19 29.79 1009 10 16 0.00 0.00
7:53 pm 19:53 Clear 62 16.7 48 8.9 60 60 SSE 12 19 29.78 1009 10 16 0.00 0.00
8:53 pm 20:53 Mostly Clear 62 16.7 48 8.9 60 60 S 14 22 29.78 1008 10 16 0.00 0.00
9:53 pm 21:53 Mostly Clear 60 15.6 47 8.3 62 62 SSE 14 22 29.78 1008 10 16 0.00 0.00
10:53 pm 22:53 Mostly Clear 60 15.6 48 8.9 64 64 SSE 14 22 29.77 1008 10 16 0.00 0.00
11:53 pm 23:53 Mostly Cloudy 60 15.6 49 9.4 67 67 SSE 14 22 29.77 1008 10 16 0.00 0.00

Powered by AerisWeather